Starlink 5008

decayed
NORAD ID: 53927 Int'l Des: 2022-119 Owner: SPXS Country: US Constellation: starlink
LEOCIRCULAR
Group

About Starlink 5008

Description loading...

Altitude History

Altitude vs Time

uPlot chart will show altitude changes over time

Two-Line Element Set

1 53927U 22119AT 25321.52494863 .12032580 12501-4 21381-3 0 9997
2 53927 53.1701 339.5872 0003691 166.7563 193.3586 16.47594803176540
Epoch: Nov 17, 2025 • Age: 1397 hours

Current Status

Position data unavailable
Launch Date Sep 24, 2022
Age 3.3 years
Decay Date Nov 17, 2025
Type internet

Technical Details

Classification Payload
Mass 305.00 kg
Dry Mass 290.00 kg
Total Mass 305.00 kg
Length 0.20 m
Diameter 2.80 m
Span 9.00 m
Shape Box + pan
Manufacturer SPXS
Bus Type Starlink
Phase Status Unknown Transfer Status
Owner/State SPXS/US

Large Constellations

Loading constellations...